Torna al catalogo

CZ-6A DEB

AttivoPO
NORAD 56246·DEBRIS·🇨🇳 China

Lanciato Nov 11, 2022 da Taiyuan Satellite Launch Center

Loading…

Prossimi Passaggi (prossime 24 ore)

TLE

AggiornatoSource: Space-Track

Epoca: Sep 14, 2026, 15:08 UTC

1 56246U 22151ABN 26257.63094365  .00014670  00000-0  11559-2 0  9993
2 56246  98.7206  33.7565 0103929 187.0228 172.9541 14.96677228187993

Traccia CZ-6A DEB in tempo reale con AllMySat

Download on the App Store